Location: Unspecified
(0.0000°N, 0.0000°E)
Time: 22:27:50
(UTC+00:00)

DMSP F15 (USA 147) - Pass Details

Date: 03 October 2020
Orbit: 829 x 845 km, 99.0° (Epoch: 26 October)

Event Time Altitude Azimuth Distance (km) Brightness Sun altitude
Rises 04:20:41 0° 354° (N) 3,354 8.2 -22.0°
Reaches altitude 10° 04:23:16 10° 344° (NNW) 2,424 7.4 -21.4°
Enters shadow 04:24:12 15° 338° (NNW) 2,121 7.0 -21.1°
